FW8558 Weather Reports


Display with metric or nautical units.
time (UTC)temp
F
wind
direction
speed
MPH
gust
MPH
rain 1hr
in
rain 24hr
in
rain mn
in
humidity
%
barometer
mb
20260504081616 43 106 14.0 15.0 0.00 0.00 0.00 65 1010.5
20260504081112 43 106 14.0 15.0 0.00 0.00 0.00 65 1010.6
20260504080609 43 106 14.0 15.0 0.00 0.00 0.00 65 1010.8
20260504080105 43 106 14.0 15.0 0.00 0.00 0.00 65 1010.3
20260504050421 42 102 11.0 20.0 0.00 0.00 0.00 73 1010.5
20260504045918 43 94 18.0 21.0 0.00 0.00 0.00 72 1010.4
20260504045414 43 96 14.0 21.0 0.00 0.00 0.00 70 1010.6
20260504044910 43 95 16.0 20.0 0.00 0.00 0.00 69 1010.4
20260504044408 44 94 18.0 22.0 0.00 0.00 0.00 69 1010.5
20260504043905 44 93 16.0 21.0 0.00 0.00 0.00 69 1010.5
20260504043402 44 89 16.0 21.0 0.00 0.00 0.00 69 1010.4
20260504042900 44 92 16.0 20.0 0.00 0.00 0.00 69 1010.4
20260504042355 44 90 16.0 22.0 0.00 0.00 0.00 70 1010.5
20260504041852 44 88 16.0 20.0 0.00 0.00 0.00 70 1010.5
20260504041348 44 89 17.0 20.0 0.00 0.00 0.00 70 1010.4
20260504040845 44 88 17.0 21.0 0.00 0.00 0.00 69 1010.4
20260504040342 44 91 14.0 19.0 0.00 0.00 0.00 69 1010.6
20260504035838 44 92 14.0 21.0 0.00 0.00 0.00 68 1010.5
20260504035336 44 91 15.0 20.0 0.00 0.00 0.00 70 1010.6
20260504034832 44 88 15.0 19.0 0.00 0.00 0.00 69 1010.8
20260504034330 45 95 15.0 20.0 0.00 0.00 0.00 68 1010.6
20260504033827 44 86 14.0 24.0 0.00 0.00 0.00 69 1010.5
20260504033325 44 90 15.0 19.0 0.00 0.00 0.00 69 1010.5
20260504032821 44 92 16.0 18.0 0.00 0.00 0.00 68 1010.9
20260504032319 45 94 13.0 20.0 0.00 0.00 0.00 67 1010.8
20260504031815 44 91 17.0 20.0 0.00 0.00 0.00 67 1010.8
20260504031313 44 94 11.0 21.0 0.00 0.00 0.00 68 1010.8
20260504030809 44 94 15.0 20.0 0.00 0.00 0.00 68 1010.8
20260504030306 44 89 16.0 21.0 0.00 0.00 0.00 67 1010.9
20260504025802 44 90 15.0 20.0 0.00 0.00 0.00 68 1010.6
20260504025259 44 90 15.0 20.0 0.00 0.00 0.00 68 1011.0
20260504024755 44 97 14.0 19.0 0.00 0.00 0.00 67 1010.8
20260504024252 43 98 14.0 19.0 0.00 0.00 0.00 67 1010.9
20260504023749 43 93 15.0 18.0 0.00 0.00 0.00 68 1010.8
20260504023246 41 92 18.0 19.0 0.00 0.00 0.00 71 1011.0
20260504022741 41 93 16.0 21.0 0.00 0.00 0.00 72 1011.0
20260504022238 41 91 17.0 22.0 0.00 0.00 0.00 72 1010.8
20260504021735 41 85 18.0 21.0 0.00 0.00 0.00 73 1011.0
20260504021232 41 90 16.0 20.0 0.00 0.00 0.00 71 1010.9
20260504020729 41 90 15.0 19.0 0.00 0.00 0.00 71 1010.8
20260504020226 41 89 16.0 20.0 0.00 0.00 0.00 71 1010.6
20260504015722 41 91 17.0 20.0 0.00 0.00 0.00 70 1010.9
20260504015218 42 96 18.0 23.0 0.00 0.00 0.00 70 1010.9
20260504014714 42 95 13.0 20.0 0.00 0.00 0.00 70 1010.9
20260504014211 42 97 14.0 20.0 0.00 0.00 0.00 69 1011.0
20260504013709 43 95 14.0 19.0 0.00 0.00 0.00 68 1010.9
20260504013206 42 88 16.0 22.0 0.00 0.00 0.00 68 1010.9
20260504012703 43 92 14.0 17.0 0.00 0.00 0.00 68 1010.5
20260504012201 43 89 16.0 17.0 0.00 0.00 0.00 68 1010.8
20260504011657 43 90 16.0 17.0 0.00 0.00 0.00 67 1010.5
20260504011154 43 92 16.0 17.0 0.00 0.00 0.00 67 1010.5
20260504010650 43 89 16.0 17.0 0.00 0.00 0.00 67 1010.5
20260504010145 43 92 16.0 17.0 0.00 0.00 0.00 66 1010.4
20260504005643 44 90 16.0 16.0 0.00 0.00 0.00 65 1010.5
20260504005139 44 92 16.0 17.0 0.00 0.00 0.00 65 1010.2
20260504004638 44 90 15.0 17.0 0.00 0.00 0.00 66 1010.3
20260504004134 44 92 14.0 17.0 0.00 0.00 0.00 65 1010.3
20260504003631 43 92 16.0 17.0 0.00 0.00 0.00 67 1010.1
20260504003127 43 93 16.0 17.0 0.00 0.00 0.00 66 1010.1
20260504002624 44 95 15.0 17.0 0.00 0.00 0.00 67 1010.0
20260504002122 43 91 16.0 17.0 0.00 0.00 0.00 67 1010.1
20260504001619 43 93 16.0 17.0 0.00 0.00 0.00 67 1009.9
20260504001115 43 93 16.0 17.0 0.00 0.00 0.00 67 1010.0
20260504000613 43 92 16.0 17.0 0.00 0.00 0.00 66 1010.2
20260504000110 44 94 16.0 17.0 0.00 0.00 0.00 65 1010.1
20260503235608 44 91 17.0 17.0 0.00 0.00 0.00 64 1009.9
20260503235105 44 88 15.0 17.0 0.00 0.00 0.00 64 1009.9
20260503234603 45 88 15.0 18.0 0.00 0.00 0.00 64 1009.9
20260503234100 45 92 13.0 17.0 0.00 0.00 0.00 62 1009.9
20260503233556 46 92 14.0 17.0 0.00 0.00 0.00 62 1009.9
20260503233052 46 92 15.0 18.0 0.00 0.00 0.00 61 1009.8
20260503232550 46 91 14.0 17.0 0.00 0.00 0.00 63 1009.9
20260503232047 46 96 15.0 20.0 0.00 0.00 0.00 62 1009.7
20260503231545 46 95 15.0 18.0 0.00 0.00 0.00 61 1009.8
20260503231041 47 95 13.0 17.0 0.00 0.00 0.00 61 1009.9
20260503230538 47 98 13.0 17.0 0.00 0.00 0.00 61 1009.9
20260503230036 47 85 13.0 18.0 0.00 0.00 0.00 62 1009.7
20260503225532 47 94 14.0 17.0 0.00 0.00 0.00 61 1009.8
20260503225027 47 92 14.0 17.0 0.00 0.00 0.00 62 1009.6
20260503224525 47 94 14.0 20.0 0.00 0.00 0.00 60 1009.8
20260503224023 47 100 14.0 21.0 0.00 0.00 0.00 60 1009.9
20260503223520 47 106 9.0 17.0 0.00 0.00 0.00 62 1009.9
20260503223016 47 101 13.0 19.0 0.00 0.00 0.00 61 1010.0
20260503222514 47 80 13.0 18.0 0.00 0.00 0.00 60 1010.0
20260503222012 47 96 13.0 21.0 0.00 0.00 0.00 59 1009.9
20260503221510 48 83 13.0 21.0 0.00 0.00 0.00 58 1009.8
20260503221007 48 79 13.0 17.0 0.00 0.00 0.00 58 1009.8
20260503220503 48 89 15.0 20.0 0.00 0.00 0.00 58 1009.7
20260503220000 48 94 13.0 22.0 0.00 0.00 0.00 56 1009.7
20260503215457 48 86 9.0 20.0 0.00 0.00 0.00 55 1009.6
20260503214954 48 96 14.0 19.0 0.00 0.00 0.00 54 1009.7
20260503214452 49 91 16.0 20.0 0.00 0.00 0.00 54 1009.6
20260503213949 49 90 8.0 19.0 0.00 0.00 0.00 53 1009.6
20260503213447 48 80 14.0 18.0 0.00 0.00 0.00 53 1009.2
20260503212943 49 68 18.0 21.0 0.00 0.00 0.00 52 1009.4
20260503212441 49 92 13.0 23.0 0.00 0.00 0.00 52 1009.3
20260503211938 49 46 13.0 20.0 0.00 0.00 0.00 51 1009.4
20260503211435 49 108 14.0 19.0 0.00 0.00 0.00 51 1009.3
20260503210930 50 110 9.0 19.0 0.00 0.00 0.00 49 1009.4
20260503210427 51 96 11.0 16.0 0.00 0.00 0.00 50 1009.3
20260503205922 50 97 11.0 19.0 0.00 0.00 0.00 48 1009.2
20260503205420 50 103 14.0 20.0 0.00 0.00 0.00 49 1009.2
20260503204916 50 77 11.0 17.0 0.00 0.00 0.00 49 1009.1
20260503204413 50 111 10.0 21.0 0.00 0.00 0.00 46 1009.2
20260503203910 50 97 13.0 17.0 0.00 0.00 0.00 48 1009.2
20260503203408 50 101 12.0 22.0 0.00 0.00 0.00 47 1008.8
20260503202904 50 71 15.0 18.0 0.00 0.00 0.00 46 1009.2
20260503202403 51 68 16.0 17.0 0.00 0.00 0.00 44 1008.8
20260503201901 51 97 13.0 22.0 0.00 0.00 0.00 43 1009.3
20260503201357 52 95 16.0 20.0 0.00 0.00 0.00 43 1009.2
20260503200855 50 82 13.0 20.0 0.00 0.00 0.00 43 1009.5
20260503200350 52 100 11.0 22.0 0.00 0.00 0.00 41 1009.0
20260503195848 51 78 11.0 20.0 0.00 0.00 0.00 42 1009.2
20260503195344 52 72 15.0 21.0 0.00 0.00 0.00 41 1009.4
20260503194842 53 93 14.0 21.0 0.00 0.00 0.00 41 1009.4
20260503194337 52 102 11.0 22.0 0.00 0.00 0.00 40 1009.2
20260503193834 53 98 15.0 18.0 0.00 0.00 0.00 44 1009.6
20260503193330 53 80 14.0 21.0 0.00 0.00 0.00 40 1009.9
20260503192826 51 90 12.0 17.0 0.00 0.00 0.00 42 1009.6
20260503192321 51 106 15.0 17.0 0.00 0.00 0.00 43 1009.7
20260503191818 52 107 11.0 18.0 0.00 0.00 0.00 42 1010.0
20260503191315 51 103 12.0 21.0 0.00 0.00 0.00 44 1009.9
20260503190812 50 115 11.0 17.0 0.00 0.00 0.00 44 1010.1
20260503190309 51 98 10.0 19.0 0.00 0.00 0.00 45 1010.0
20260503185806 49 95 13.0 20.0 0.00 0.00 0.00 42 1009.8
20260503185304 49 78 13.0 21.0 0.00 0.00 0.00 44 1009.9
20260503184801 50 81 13.0 17.0 0.00 0.00 0.00 44 1010.1
20260503184258 51 86 11.0 18.0 0.00 0.00 0.00 44 1010.2
20260503183754 49 85 12.0 18.0 0.00 0.00 0.00 45 1010.0
20260503183252 50 82 15.0 21.0 0.00 0.00 0.00 43 1010.1
20260503182749 50 82 11.0 17.0 0.00 0.00 0.00 44 1010.3
20260503182248 48 53 12.0 17.0 0.00 0.00 0.00 44 1010.3
20260503181744 49 93 13.0 22.0 0.00 0.00 0.00 45 1010.3
20260503181241 50 93 13.0 17.0 0.00 0.00 0.00 46 1010.3
20260503180738 50 74 14.0 18.0 0.00 0.00 0.00 46 1010.3
20260503180236 50 123 11.0 19.0 0.00 0.00 0.00 42 1010.2
20260503175732 50 93 9.0 18.0 0.00 0.00 0.00 47 1010.4
20260503175231 49 116 10.0 20.0 0.00 0.00 0.00 48 1010.3
20260503174726 50 98 10.0 18.0 0.00 0.00 0.00 48 1010.3
20260503174224 50 82 11.0 20.0 0.00 0.00 0.00 47 1010.5
20260503173719 48 65 18.0 20.0 0.00 0.00 0.00 48 1010.5
20260503173215 47 93 11.0 21.0 0.00 0.00 0.00 46 1010.8
20260503172712 47 95 13.0 22.0 0.00 0.00 0.00 48 1010.6
20260503172209 46 109 15.0 18.0 0.00 0.00 0.00 52 1010.6
20260503171706 46 102 11.0 18.0 0.00 0.00 0.00 52 1010.8
20260503171203 44 100 14.0 20.0 0.00 0.00 0.00 52 1011.0
20260503170700 45 99 15.0 19.0 0.00 0.00 0.00 51 1011.2
20260503170157 44 94 12.0 18.0 0.00 0.00 0.00 50 1010.8
20260503160118 42 90 12.0 22.0 0.00 0.00 0.00 57 1011.3
20260503150548 39 70 13.0 21.0 0.00 0.00 0.00 62 1011.2
20260503130938 39 97 13.0 22.0 0.00 0.00 0.00 71 1011.6
20260503130436 39 93 12.0 20.0 0.00 0.00 0.00 73 1011.3
20260503110326 0 0.0 0.0 0.00 0.00 0.00 1011.0
20260503100252 0 0.0 0.0 0.00 0.00 0.00 1010.5
20260503090212 0 0.0 0.0 0.00 0.00 0.00 1010.4